Regional Weather Roundup
Issued by NWS State College, PA

Home | Current Version | Previous Version | Text Only | Print | Product List | Glossary On
Versions: 1 2 3 4 5 6 7 8 9 10 11 12 13 14 15 16 17 18 19 20 21 22 23 24 25 26 27 28 29 30 31 32 33 34 35 36 37 38 39 40 41 42 43 44 45 46 47 48 49 50
000
ASUS41 KCTP 302110
RWRCTP

REGIONAL WEATHER ROUNDUP
NATIONAL WEATHER SERVICE STATE COLLEGE PA
500 PM EDT SAT JUL 30 2016

Note: "fair" indicates few or no clouds below 12,000 feet with no
significant weather and/or obstructions to visibility.

* = STATION THAT DOES NOT REPORT PRECIPITATION /E.G. RAIN...SNOW...ETC/
    THUNDER OR FOG.

PAZ002>004-007>009-013>016-020>023-029>032-302200-
WESTERN PENNSYLVANIA

CITY           SKY/WX    TMP DP  RH WIND       PRES   REMARKS
ERIE           CLOUDY    77  68  73 NE12      29.94F
MEADVILLE      CLOUDY    74  66  76 CALM      29.97S
FRANKLIN*      CLOUDY    73  66  78 E7        29.98F
NEW CASTLE     MOCLDY    79  68  69 NE5       29.95F
BEAVER COUNTY  PTSUNNY   81  68  65 CALM      29.94F
BUTLER*        MOSUNNY   75  68  78 E7        29.98F
PITTSBURGH INT PTSUNNY   78  65  63 NE3       29.94F
PITTSBURGH     PTSUNNY   76  68  76 SE6       29.94F
INDIANA*       CLOUDY    75  72  88 VRB5      30.00S
LATROBE        MOSUNNY   72  72 100 W7        29.97S
WASHINGTON CO* PTSUNNY   75  70  83 SE7       29.95F
$$

PAZ004>006-010>012-017>019-024>028-033>037-041-042-045-046-049>053-302200-
CENTRAL PENNSYLVANIA

CITY           SKY/WX    TMP DP  RH WIND       PRES   REMARKS
BRADFORD       CLOUDY    70  64  81 NE7       30.02F
DUBOIS         CLOUDY    74  66  76 E5        30.00R
CLEARFIELD     CLOUDY    72  67  84 E6        30.00S
JOHNSTOWN      CLOUDY    72  65  78 W6        30.00S
ALTOONA        CLOUDY    72  71  97 NE3       29.98F
STATE COLLEGE  CLOUDY    72  70  94 NE6       29.98S FOG
WILLIAMSPORT   CLOUDY    74  68  81 CALM      29.97S
SELINSGROVE    HVY RAIN  73  73 100 SE5       29.97F FOG
FT INDIANTOWN  LGT RAIN  72  72 100 VRB5      29.98S VSB 1
CAPITAL CITY   LGT RAIN  76  72  87 E7        29.96S
HARRISBURG     LGT RAIN  75  74  96 E5        29.95S
YORK           RAIN      74  72  93 NE5       29.94F FOG
$$

PAZ038>040-043-044-047-048-054-055-060>062-067>071-302200-
EASTERN PENNSYLVANIA

CITY           SKY/WX    TMP DP  RH WIND       PRES   REMARKS
SCRANTON       HVY RAIN  69  68  96 VRB5      30.04R FOG
MOUNT POCONO   RAIN      67  65  93 SW8       30.06R
ALLENTOWN      PTSUNNY   74  69  85 CALM      29.99R
QUAKERTOWN*    CLOUDY    75  73  94 CALM      30.01R
READING        HVY RAIN  73  70  90 NE5       29.97S FOG
LANCASTER      HVY RAIN  69  69 100 N5        29.98R VSB 1
COATESVILLE    LGT RAIN  73  73 100 CALM      30.01R
POTTSTOWN      LGT RAIN  74  72  93 NE5       30.00R
BLUE BELL      CLOUDY    79  70  73 SW3       29.98R
DOYLESTOWN     CLOUDY    73  71  93 N6        29.99R
WILLOW GROVE   NOT AVBL
NORTH PHILA    CLOUDY    84  70  62 S7        29.98R
PHILADELPHIA   LGT RAIN  83  71  67 S13       29.98R
$$



USA.gov is the U.S. government's official web portal to all federal, state and local government web resources and services.